Retour au catalogue

QIANFAN-148

ActifCommunicationsPO
NORAD 69107·PAYLOAD·🇨🇳 China

Lancé May 17, 2026 depuis Wenchang Space Launch Site

Loading…

Prochains Passages (prochaines 24 heures)

TLE

FraisSource: Space-Track

Époque: Sep 14, 2026, 21:29 UTC

1 69107U 26108D   26257.89554290  .00000100  00000-0  13697-3 0  9994
2 69107  89.0185  13.0844 0001954 109.3975 250.7388 13.51023602 16541

Suivez QIANFAN-148 en temps réel avec AllMySat

Download on the App Store